#timestamp,LO_Frequency,Hit,StdDev 
1509678015.4,286047009.2,N
1509678035.2,286047010.8,N
1509678055.0,286047009.2,N
1509678055.9,286047009.2,N
1509678075.8,286047006.5,N
1509678095.6,286047007.6,N
1509678115.4,286047005.0,N
1509678135.3,286047007.1,N
1509678155.1,286047004.7,N
1509678175.8,286047005.4,N
1509678195.7,286047003.2,N
1509678215.5,286047005.5,N
1509678235.3,286047005.9,N
1509678255.2,286047003.5,N
1509678275.0,286047005.9,N
1509678275.9,286047005.9,N
1509678295.8,286047006.8,Y
1509678315.6,286046999.0,P
1509678335.4,286047000.8,N
1509678355.3,286047002.4,N
1509678375.1,286047000.3,N
1509678376.0,286047000.3,N
1509678395.8,286047000.2,N
1509678415.7,286047000.7,N
1509678435.5,286047002.4,N
1509678455.3,286047003.1,N
1509678475.2,286047005.7,N
1509678495.9,286047001.7,N
1509678515.7,286047000.8,N
1509678535.6,286046996.5,N
1509678555.4,286046998.2,N
1509678575.2,286046999.8,N
1509678595.1,286046998.3,N
1509678596.0,286046998.3,N
1509678615.8,286046999.0,N
1509678635.6,286047002.7,N
1509678655.5,286047002.2,N
1509678675.3,286047000.7,N
1509678695.1,286047001.0,N
1509678715.9,286047002.1,N
1509678735.7,286047001.3,N
1509678755.5,286047003.1,N
1509678775.4,286047004.8,N
1509678795.2,286047003.1,N
1509678815.0,286047005.8,N
1509678815.9,286047005.8,N
1509678835.8,286047005.3,N
1509678855.6,286047003.0,N
1509678875.4,286047003.0,N
1509678895.3,286047000.0,N
1509678915.1,286047000.4,N
1509678935.8,286047000.3,N
1509678955.7,286046998.7,N
1509678975.5,286046996.5,N
1509678995.3,286046995.6,N
1509679015.2,286046997.0,N
1509679035.0,286046997.0,N
1509679035.9,286046997.0,N
1509679055.7,286046995.1,N
1509679075.6,286046993.6,N
1509679095.4,286046994.0,N
1509679115.2,286046992.1,N
1509679135.1,286046990.9,N
1509679136.0,286046990.9,N
1509679155.8,286046989.6,N
1509679175.7,286046987.9,N
1509679195.5,286046984.6,Y
1509679215.3,286046986.2,P
1509679235.2,286046985.3,N
1509679255.9,286046986.1,N
1509679275.7,286046987.0,N
1509679295.6,286046988.7,N
1509679315.4,286046989.7,N
1509679335.2,286046990.2,N
1509679355.1,286046991.5,N
1509679356.0,286046991.5,N
1509679375.8,286046985.8,Y
1509679395.6,286047000.8,P
1509679415.5,286046998.5,N
1509679435.3,286047004.4,N
1509679455.1,286047001.4,N
1509679475.9,286047002.6,N
1509679495.7,286046998.7,N
1509679515.5,286046997.4,N
1509679535.4,286046997.5,N
1509679555.2,286046994.9,N
1509679575.0,286046992.6,N
1509679576.0,286046992.6,N
1509679595.8,286046990.0,N
1509679615.6,286046989.8,N
1509679635.5,286046994.2,N
1509679655.3,286046993.7,N
1509679675.1,286046993.5,N
1509679695.9,286046996.7,N
1509679715.7,286046999.6,N
1509679735.5,286046999.5,N
1509679755.4,286046998.9,N
1509679775.2,286046998.3,N
1509679795.0,286047002.6,N
1509679795.9,286047002.6,N
1509679815.8,286047002.2,N
1509679835.6,286047003.4,N
1509679855.4,286047005.5,N
1509679875.3,286047004.8,N
1509679895.1,286047002.9,N
1509679896.0,286047002.9,N
1509679915.8,286047003.2,N
1509679935.7,286047003.0,N
1509679955.5,286047003.3,N
1509679975.3,286047003.3,N
1509679995.2,286047003.5,N
1509680015.0,286047002.5,N
1509680015.9,286047002.5,N
1509680035.7,286047002.3,N
1509680055.6,286047003.8,N
1509680075.4,286047004.0,N
1509680095.2,286047000.6,N
1509680115.1,286047000.2,N
1509680116.0,286047000.2,N
1509680135.8,286047001.9,N
1509680155.6,286047000.1,N
1509680175.5,286046995.1,N
1509680195.3,286046995.2,N
1509680215.1,286046993.8,N
1509680235.9,286046992.5,N
1509680255.7,286046992.8,N
1509680275.6,286046988.9,Y
1509680295.4,286046988.8,P
1509680315.2,286046987.2,N
1509680335.1,286046986.9,N
1509680336.0,286046986.9,N
1509680355.8,286046987.2,N
1509680375.6,286046989.0,N
1509680395.5,286046989.5,N
1509680415.3,286046992.8,N
1509680435.1,286046994.0,N
1509680455.9,286046993.8,N
1509680475.7,286046994.6,N
1509680495.5,286046990.3,N
1509680515.4,286046989.7,N
1509680535.2,286046991.1,N
1509680555.0,286046994.3,N
1509680555.9,286046994.3,N
1509680575.8,286046996.2,N
1509680595.6,286046996.9,N
1509680615.4,286046996.1,N
1509680635.3,286046997.5,N
1509680655.1,286046995.4,N
1509680656.0,286046995.4,N
1509680675.8,286046995.3,N
1509680695.7,286046995.3,N
1509680715.5,286046996.2,N
1509680735.3,286046996.0,N
1509680755.2,286046997.4,N
1509680775.9,286046995.1,N
1509680795.7,286046996.4,N
1509680815.6,286046996.5,N
1509680835.4,286046997.8,N
1509680855.2,286046993.7,N
1509680875.1,286046996.2,N
1509680876.0,286046996.2,N
1509680895.8,286046995.5,N
1509680915.6,286046993.4,N
1509680935.5,286046997.4,N
1509680955.3,286047001.1,N
1509680975.1,286046998.2,N
1509680995.9,286047000.0,N
1509681015.7,286047002.2,N
1509681035.5,286046999.8,N
1509681055.4,286046999.8,N
1509681075.2,286047004.0,N
1509681095.1,286047000.3,N
1509681096.0,286047000.3,N
1509681115.8,286046997.3,N
1509681135.6,286046996.7,N
1509681155.5,286046995.6,N
1509681175.3,286046997.1,N
1509681195.1,286047000.6,N
1509681215.9,286047000.2,N
1509681235.7,286046999.4,N
1509681255.5,286046999.5,N
1509681275.4,286047002.3,N
1509681295.2,286047006.9,N
1509681315.0,286047010.4,Y
1509681315.9,286047010.4,P
1509681335.8,286047009.9,N
1509681355.6,286047009.5,N
1509681375.5,286047015.6,Y
1509681395.3,286047006.4,P
1509681415.1,286047011.9,P
1509681435.9,286047015.3,P
1509681455.7,286047014.5,Y
1509681475.5,286047009.1,P
1509681495.4,286047008.2,P
1509681515.2,286047009.4,P
1509681535.0,286047009.3,Y
1509681536.0,286047009.3,P
1509681555.8,286047003.3,P
1509681575.6,286047005.8,N
1509681595.4,286047005.5,N
